SGO200 LGIR-LCGK

Flight info

Callsign SGO200
Flight time N/A
Altitude 9500
Route SIT UM978 TOSKA DCT BONEK
Aircraft C130/H-SDE2E3FGRY/H

Departure

Time 2026-05-04 11:44
Airport Heraklion International Nikos Kazantzakis Airport (LGIR)

Arrival

Time N/A
Airport Lefkoniko Airport / Geçitkale Air Base (LCGK)
Time Latitude Longitude Altitude Speed Heading
2026-05-04 11:31 35.33897 25.16953 87 ft 0 kts 184°
2026-05-04 11:38 35.33894 25.16924 87 ft 12 kts 328°
2026-05-04 11:38 35.33947 25.17006 87 ft 15 kts 96°
2026-05-04 11:39 35.33934 25.17113 88 ft 11 kts 97°
2026-05-04 11:39 35.33933 25.17195 88 ft 11 kts 89°
2026-05-04 11:40 35.33825 25.18114 98 ft 25 kts 105°
2026-05-04 11:41 35.33848 25.18345 99 ft 32 kts 75°
2026-05-04 11:41 35.33822 25.18639 95 ft 35 kts 91°
2026-05-04 11:41 35.33818 25.18854 93 ft 22 kts 76°
2026-05-04 11:41 35.33820 25.18875 93 ft 0 kts 85°
2026-05-04 11:42 35.33823 25.18937 92 ft 16 kts 79°
2026-05-04 11:42 35.33903 25.18963 89 ft 12 kts 316°
2026-05-04 11:42 35.33913 25.18930 89 ft 0 kts 274°
2026-05-04 11:43 35.33913 25.18929 89 ft 0 kts 273°
2026-05-04 11:43 35.33929 25.18682 90 ft 66 kts 275°
2026-05-04 11:44 35.33992 25.17835 107 ft 128 kts 274°
2026-05-04 11:44 35.34080 25.16622 450 ft 155 kts 276°
2026-05-04 11:44 35.34101 25.15242 950 ft 168 kts 274°
2026-05-04 11:44 35.34077 25.13814 1576 ft 171 kts 275°
2026-05-04 11:45 35.34396 25.12465 2129 ft 167 kts 311°
2026-05-04 11:45 35.35430 25.11855 2598 ft 172 kts 349°
2026-05-04 11:45 35.36621 25.11775 3155 ft 172 kts 354°
2026-05-04 11:45 35.37816 25.11743 3713 ft 172 kts 355°
2026-05-04 11:46 35.39018 25.11726 4276 ft 173 kts 355°
2026-05-04 11:46 35.40221 25.11709 4833 ft 173 kts 356°
2026-05-04 11:46 35.41424 25.11683 5386 ft 174 kts 357°
2026-05-04 11:46 35.42583 25.12139 5885 ft 187 kts 33°
2026-05-04 11:47 35.43372 25.13471 6381 ft 204 kts 52°
2026-05-04 11:47 35.44113 25.15104 6697 ft 234 kts 63°
2026-05-04 11:47 35.44280 25.17221 7128 ft 263 kts 96°
2026-05-04 11:47 35.43798 25.19406 7658 ft 275 kts 104°
2026-05-04 11:48 35.43189 25.21668 8207 ft 283 kts 105°
2026-05-04 11:48 35.42543 25.23980 8765 ft 291 kts 105°
2026-05-04 11:48 35.41861 25.26396 8984 ft 311 kts 106°
2026-05-04 11:48 35.41141 25.28961 9103 ft 323 kts 106°
2026-05-04 11:49 35.40398 25.31580 9237 ft 327 kts 106°
2026-05-04 11:49 35.39649 25.34228 9363 ft 331 kts 106°
2026-05-04 11:49 35.38890 25.36918 9433 ft 336 kts 106°
2026-05-04 11:49 35.38120 25.39649 9412 ft 342 kts 106°
2026-05-04 11:50 35.37345 25.42410 9456 ft 344 kts 106°
2026-05-04 11:50 35.36575 25.45193 9492 ft 346 kts 106°
2026-05-04 11:50 35.35795 25.47988 9494 ft 348 kts 106°
2026-05-04 11:50 35.35005 25.50803 9492 ft 350 kts 105°
2026-05-04 11:51 35.34324 25.53657 9485 ft 348 kts 97°
2026-05-04 11:51 35.34019 25.56584 9491 ft 347 kts 91°
2026-05-04 11:51 35.33828 25.59523 9488 ft 347 kts 90°
2026-05-04 11:51 35.33666 25.62481 9478 ft 348 kts 89°
2026-05-04 11:52 35.33504 25.65440 9485 ft 350 kts 90°
2026-05-04 11:52 35.33333 25.68410 9481 ft 350 kts 90°
2026-05-04 11:52 35.33159 25.71387 9488 ft 351 kts 90°
2026-05-04 11:52 35.32984 25.74364 9488 ft 351 kts 90°
2026-05-04 11:53 35.32806 25.77353 9487 ft 351 kts 90°
2026-05-04 11:53 35.32629 25.80330 9479 ft 351 kts 90°
2026-05-04 11:53 35.32448 25.83301 9487 ft 350 kts 90°
2026-05-04 11:53 35.32264 25.86273 9485 ft 350 kts 90°
2026-05-04 11:55 35.30956 26.07048 9481 ft 349 kts 90°
2026-05-04 11:55 35.30770 26.10011 9480 ft 349 kts 90°
2026-05-04 11:56 35.30586 26.12969 9475 ft 349 kts 90°
2026-05-04 11:56 35.30401 26.15929 9481 ft 348 kts 90°
2026-05-04 11:56 35.30220 26.18886 9479 ft 348 kts 90°
2026-05-04 11:56 35.30042 26.21842 9479 ft 348 kts 90°
2026-05-04 11:57 35.29865 26.24791 9464 ft 347 kts 90°
2026-05-04 11:57 35.29688 26.27740 9479 ft 347 kts 90°
2026-05-04 11:57 35.29516 26.30695 9480 ft 349 kts 90°
2026-05-04 11:57 35.29294 26.33653 9468 ft 349 kts 92°
2026-05-04 11:58 35.29033 26.36603 9476 ft 348 kts 92°
2026-05-04 11:58 35.28757 26.39541 9462 ft 348 kts 92°
2026-05-04 11:58 35.28472 26.42480 9477 ft 348 kts 93°
2026-05-04 11:58 35.28185 26.45418 9475 ft 348 kts 92°
2026-05-04 11:59 35.27895 26.48353 9472 ft 348 kts 93°
2026-05-04 11:59 35.27600 26.51289 9473 ft 348 kts 93°
2026-05-04 11:59 35.27305 26.54226 9471 ft 348 kts 93°
2026-05-04 11:59 35.27009 26.57162 9474 ft 347 kts 93°
2026-05-04 12:00 35.26710 26.60096 9466 ft 348 kts 93°
2026-05-04 12:00 35.26410 26.63034 9462 ft 348 kts 93°
2026-05-04 12:00 35.26107 26.65971 9457 ft 348 kts 93°
2026-05-04 12:00 35.25803 26.68905 9470 ft 348 kts 93°
2026-05-04 12:01 35.25500 26.71842 9468 ft 348 kts 92°
2026-05-04 12:01 35.25193 26.74782 9468 ft 348 kts 93°
2026-05-04 12:02 35.23329 26.92406 9453 ft 348 kts 93°
2026-05-04 12:03 35.23018 26.95341 9452 ft 348 kts 93°
2026-05-04 12:03 35.22708 26.98275 9444 ft 348 kts 93°
2026-05-04 12:03 35.22399 27.01206 9448 ft 348 kts 93°
2026-05-04 12:03 35.22089 27.04145 9438 ft 348 kts 93°
2026-05-04 12:04 35.21778 27.07078 9448 ft 348 kts 93°
2026-05-04 12:04 35.21473 27.10009 9450 ft 348 kts 93°
2026-05-04 12:04 35.21166 27.12945 9451 ft 348 kts 93°
2026-05-04 12:04 35.20860 27.15877 9446 ft 348 kts 92°
2026-05-04 12:05 35.20559 27.18812 9445 ft 348 kts 92°
2026-05-04 12:05 35.20253 27.21747 9446 ft 348 kts 93°
2026-05-04 12:05 35.19948 27.24682 9446 ft 348 kts 93°
2026-05-04 12:05 35.19642 27.27620 9451 ft 348 kts 93°
2026-05-04 12:06 35.19338 27.30559 9447 ft 348 kts 94°
2026-05-04 12:06 35.19037 27.33454 9451 ft 348 kts 93°
2026-05-04 12:06 35.18737 27.36394 9452 ft 348 kts 93°
2026-05-04 12:06 35.18442 27.39332 9458 ft 349 kts 93°
2026-05-04 12:07 35.18146 27.42273 9447 ft 348 kts 93°
2026-05-04 12:07 35.17849 27.45208 9455 ft 348 kts 93°
2026-05-04 12:07 35.17551 27.48151 9453 ft 349 kts 94°
2026-05-04 12:07 35.17254 27.51091 9439 ft 348 kts 93°
2026-05-04 12:08 35.16955 27.54026 9450 ft 348 kts 94°
2026-05-04 12:08 35.16653 27.56968 9451 ft 349 kts 93°
2026-05-04 12:08 35.16351 27.59905 9451 ft 349 kts 92°
2026-05-04 12:08 35.16048 27.62844 9446 ft 348 kts 92°
2026-05-04 12:09 35.15742 27.65781 9431 ft 348 kts 93°
2026-05-04 12:09 35.15437 27.68718 9437 ft 348 kts 93°
2026-05-04 12:09 35.15132 27.71653 9442 ft 348 kts 93°
2026-05-04 12:09 35.14828 27.74589 9443 ft 348 kts 94°
2026-05-04 12:10 35.14524 27.77526 9448 ft 348 kts 93°
2026-05-04 12:10 35.14219 27.80450 9444 ft 348 kts 93°
2026-05-04 12:10 35.13914 27.83383 9448 ft 348 kts 94°
2026-05-04 12:10 35.13609 27.86319 9437 ft 349 kts 92°
2026-05-04 12:11 35.13304 27.89256 9444 ft 349 kts 93°
2026-05-04 12:11 35.12996 27.92202 9443 ft 350 kts 94°
2026-05-04 12:11 35.12689 27.95152 9441 ft 350 kts 94°
2026-05-04 12:11 35.12384 27.98105 9440 ft 351 kts 93°
2026-05-04 12:12 35.12076 28.01061 9443 ft 351 kts 93°
2026-05-04 12:12 35.11768 28.04018 9437 ft 351 kts 93°
2026-05-04 12:12 35.11462 28.06979 9442 ft 352 kts 93°
2026-05-04 12:12 35.11154 28.09945 9443 ft 352 kts 93°
2026-05-04 12:13 35.10848 28.12915 9437 ft 352 kts 92°
2026-05-04 12:14 35.08733 28.33695 9439 ft 354 kts 93°
2026-05-04 12:15 35.08435 28.36672 9437 ft 354 kts 92°
2026-05-04 12:15 35.08143 28.39655 9437 ft 354 kts 92°
2026-05-04 12:15 35.07844 28.42649 9432 ft 355 kts 94°
2026-05-04 12:15 35.07548 28.45640 9422 ft 355 kts 93°
2026-05-04 12:16 35.07253 28.48629 9433 ft 355 kts 92°
2026-05-04 12:16 35.06960 28.51629 9424 ft 356 kts 93°
2026-05-04 12:16 35.06668 28.54625 9435 ft 356 kts 92°
2026-05-04 12:16 35.06376 28.57628 9435 ft 356 kts 93°
2026-05-04 12:17 35.06086 28.60633 9435 ft 357 kts 93°
2026-05-04 12:17 35.05796 28.63637 9432 ft 357 kts 93°
2026-05-04 12:17 35.05505 28.66643 9425 ft 357 kts 94°
2026-05-04 12:17 35.05213 28.69653 9428 ft 357 kts 94°
2026-05-04 12:18 35.04922 28.72666 9425 ft 357 kts 93°
2026-05-04 12:18 35.04630 28.75681 9426 ft 358 kts 93°
2026-05-04 12:18 35.04339 28.78695 9419 ft 358 kts 94°
2026-05-04 12:18 35.04049 28.81711 9424 ft 358 kts 93°
2026-05-04 12:19 35.03758 28.84727 9425 ft 358 kts 93°
2026-05-04 12:19 35.03465 28.87744 9426 ft 358 kts 93°
2026-05-04 12:19 35.03172 28.90760 9416 ft 358 kts 93°
2026-05-04 12:19 35.02880 28.93776 9426 ft 358 kts 93°
2026-05-04 12:20 35.02590 28.96791 9420 ft 358 kts 93°
2026-05-04 12:20 35.02298 28.99807 9423 ft 358 kts 92°
2026-05-04 12:20 35.02006 29.02822 9408 ft 358 kts 93°
2026-05-04 12:20 35.01713 29.05839 9427 ft 358 kts 93°
2026-05-04 12:21 35.01419 29.08853 9422 ft 358 kts 93°
2026-05-04 12:21 35.01125 29.11874 9420 ft 359 kts 93°
2026-05-04 12:21 35.00832 29.14893 9419 ft 359 kts 92°
2026-05-04 12:21 35.00535 29.17916 9420 ft 359 kts 93°
2026-05-04 12:22 35.00239 29.20936 9422 ft 359 kts 93°
2026-05-04 12:22 34.99948 29.23957 9419 ft 359 kts 94°
2026-05-04 12:22 34.99655 29.26981 9424 ft 359 kts 93°
2026-05-04 12:22 34.99367 29.29999 9422 ft 358 kts 93°
2026-05-04 12:23 34.99080 29.33018 9420 ft 359 kts 93°
2026-05-04 12:23 34.98792 29.36040 9419 ft 359 kts 93°
2026-05-04 12:23 34.98502 29.39061 9422 ft 359 kts 93°
2026-05-04 12:23 34.98215 29.42083 9419 ft 359 kts 93°
2026-05-04 12:24 34.97926 29.45107 9423 ft 359 kts 93°
2026-05-04 12:24 34.97637 29.48133 9422 ft 359 kts 94°
2026-05-04 12:24 34.97351 29.51162 9422 ft 360 kts 93°
2026-05-04 12:24 34.97066 29.54191 9422 ft 360 kts 93°
2026-05-04 12:25 34.96781 29.57223 9423 ft 360 kts 93°
2026-05-04 12:25 34.96498 29.60254 9423 ft 360 kts 93°
2026-05-04 12:25 34.96215 29.63286 9421 ft 360 kts 93°
2026-05-04 12:25 34.95932 29.66321 9422 ft 360 kts 93°
2026-05-04 12:26 34.95649 29.69355 9422 ft 360 kts 93°
2026-05-04 12:26 34.95362 29.72392 9420 ft 361 kts 93°
2026-05-04 12:26 34.95077 29.75426 9420 ft 361 kts 94°
2026-05-04 12:26 34.94797 29.78460 9420 ft 361 kts 92°
2026-05-04 12:27 34.94519 29.81497 9422 ft 360 kts 93°
2026-05-04 12:27 34.94335 29.83503 9421 ft 360 kts 92°
2026-05-04 12:27 34.94058 29.86539 9424 ft 360 kts 93°
2026-05-04 12:27 34.93784 29.89573 9420 ft 360 kts 92°
2026-05-04 12:28 34.93508 29.92605 9422 ft 360 kts 93°
2026-05-04 12:28 34.93235 29.95641 9423 ft 361 kts 93°
2026-05-04 12:28 34.92964 29.98685 9423 ft 361 kts 93°
2026-05-04 12:28 34.92692 30.01720 9424 ft 361 kts 93°
2026-05-04 12:29 34.92421 30.04757 9424 ft 360 kts 93°
2026-05-04 12:29 34.92152 30.07795 9426 ft 360 kts 93°
2026-05-04 12:29 34.91885 30.10827 9424 ft 360 kts 93°
2026-05-04 12:29 34.91622 30.13864 9422 ft 360 kts 93°
2026-05-04 12:30 34.91361 30.16894 9426 ft 360 kts 93°
2026-05-04 12:30 34.91100 30.19936 9424 ft 361 kts 93°
2026-05-04 12:30 34.90843 30.22972 9422 ft 361 kts 93°
2026-05-04 12:30 34.90589 30.26017 9428 ft 361 kts 94°
2026-05-04 12:31 34.90339 30.29056 9425 ft 361 kts 93°
2026-05-04 12:31 34.90092 30.32097 9428 ft 360 kts 93°
2026-05-04 12:31 34.89850 30.35116 9430 ft 361 kts 93°
2026-05-04 12:31 34.89606 30.38175 9429 ft 361 kts 93°
2026-05-04 12:32 34.89367 30.41221 9430 ft 361 kts 93°
2026-05-04 12:32 34.88900 30.47311 9432 ft 361 kts 92°
2026-05-04 12:32 34.88789 30.50357 9430 ft 360 kts 88°
2026-05-04 12:33 34.88776 30.53401 9432 ft 360 kts 87°
2026-05-04 12:33 34.88803 30.56447 9433 ft 359 kts 86°
2026-05-04 12:33 34.88850 30.59486 9434 ft 359 kts 86°
2026-05-04 12:33 34.88910 30.62532 9436 ft 359 kts 86°
2026-05-04 12:34 34.88976 30.65569 9433 ft 359 kts 86°
2026-05-04 12:34 34.89047 30.68612 9437 ft 359 kts 86°
2026-05-04 12:34 34.89119 30.71649 9434 ft 359 kts 86°
2026-05-04 12:34 34.89197 30.74694 9432 ft 359 kts 86°
2026-05-04 12:35 34.89258 30.77735 9435 ft 360 kts 87°
2026-05-04 12:35 34.89270 30.80782 9436 ft 360 kts 88°
2026-05-04 12:35 34.89256 30.83830 9437 ft 360 kts 89°